Weather History for KPHF - December, 2011

Change the Weather History Date:

Friday, December 9, 2011

  Actual Average Record
Temperature  
Mean Temperature 43 °F -  
Max Temperature 54 °F 57 °F 79 °F (1978)
Min Temperature 32 °F 38 °F 19 °F (2010)
Degree Days  
Heating Degree Days 22    
Moisture  
Dew Point 39 °F    
Average Humidity 88    
Maximum Humidity 97    
Minimum Humidity 72    
Precipitation  
Precipitation 0.00 in - - ()
Sea Level Pressure  
Sea Level Pressure 30.29 in    
Wind  
Wind Speed 1 mph (North)    
Max Wind Speed 7 mph    
Max Gust Speed -    
Visibility 8 miles    
Events Rain    
Averages and records for this station are not official NWS values.
T = Trace of Precipitation, MM = Missing Value Source: NWS Daily Summary

Daily Weather History Graph

Daily Weather History Graph

Search for Another Location

Airport or City:

Trip Planner

Search our weather history database for the weather conditions in past years. The results will help you decide how hot, cold, wet, or windy it might be!

Date:

Astronomy

Dec. 09, 2011 Rise Set
Actual Time 7:07 AM EST 4:48 PM EST
Civil Twilight 6:38 AM EST 5:17 PM EST
Nautical Twilight 6:06 AM EST 5:50 PM EST
Astronomical Twilight 5:34 AM EST 6:21 PM EST
Moon 4:10 PM EST (12/9) 6:13 AM EST (12/9)
Length of Visible Light 10h 38m
Length of Day
9h 41m
Waxing Gibbous, 99% of the Moon is Illuminated
Dec 9
Waxing Gibbous
Dec 10
Full
Dec 17
Last Quarter
Dec 24
New
Jan 1
First Quarter

Hourly Weather History & Observations

Time (EST) Temp. Dew Point Humidity Pressure Visibility Wind Dir Wind Speed Gust Speed Precip Events Conditions
12:54 AM 32.0 °F 30.0 °F 92% 30.36 in 10.0 mi Calm Calm - N/A   Clear
1:54 AM 33.1 °F 30.9 °F 92% 30.35 in 9.0 mi Calm Calm - N/A   Clear
2:54 AM 32.0 °F 30.9 °F 96% 30.36 in 10.0 mi Calm Calm - N/A   Clear
3:54 AM 32.0 °F 30.9 °F 96% 30.34 in 2.5 mi Calm Calm - N/A   Clear
4:02 AM 32.0 °F 30.2 °F 93% 30.33 in 1.0 mi Calm Calm - N/A   Clear
4:13 AM 33.8 °F 32.0 °F 93% 30.33 in 3.0 mi Calm Calm - N/A   Clear
4:25 AM 33.8 °F 32.0 °F 93% 30.33 in 2.5 mi Calm Calm - N/A   Clear
4:34 AM 33.8 °F 30.2 °F 87% 30.33 in 9.0 mi Calm Calm - N/A   Clear
4:54 AM 33.1 °F 32.0 °F 96% 30.34 in 10.0 mi Calm Calm - N/A   Clear
5:54 AM 32.0 °F 30.9 °F 96% 30.33 in 10.0 mi Calm Calm - N/A   Clear
6:54 AM 32.0 °F 30.9 °F 96% 30.34 in 9.0 mi Calm Calm - N/A   Clear
7:54 AM 33.8 °F 32.0 °F 93% 30.33 in 7.0 mi Calm Calm - N/A   Clear
8:54 AM 39.9 °F 37.0 °F 89% 30.34 in 10.0 mi North - - N/A   Clear
9:54 AM 48.9 °F 41.0 °F 74% 30.33 in 10.0 mi Calm Calm - N/A   Clear
10:54 AM 51.1 °F 44.1 °F 77% 30.32 in 10.0 mi ENE 4.6 mph - N/A   Mostly Cloudy
11:54 AM 54.0 °F 46.0 °F 75% 30.30 in 10.0 mi NE 4.6 mph - N/A   Scattered Clouds
12:54 PM 53.6 °F 44.6 °F 72% 30.27 in 10.0 mi North 4.6 mph - N/A   Overcast
1:54 PM 54.0 °F 46.0 °F 75% 30.26 in 10.0 mi NNW 6.9 mph - N/A   Overcast
2:54 PM 52.0 °F 45.0 °F 77% 30.25 in 10.0 mi North 4.6 mph - N/A   Overcast
3:54 PM 51.8 °F 44.6 °F 76% 30.24 in 10.0 mi NNW 5.8 mph - N/A   Overcast
4:54 PM 50.0 °F 44.6 °F 82% 30.23 in 10.0 mi NNW 5.8 mph - N/A Rain Light Rain
5:54 PM 48.9 °F 46.0 °F 90% 30.23 in 10.0 mi North - - 0.00 in   Overcast
6:54 PM 48.0 °F 46.0 °F 93% 30.23 in 9.0 mi Calm Calm - N/A   Mostly Cloudy
7:54 PM 48.9 °F 46.9 °F 93% 30.24 in 8.0 mi Calm Calm - N/A   Overcast
8:54 PM 48.0 °F 46.0 °F 93% 30.24 in 7.0 mi North - - N/A   Overcast
9:54 PM 48.0 °F 45.0 °F 89% 30.23 in 9.0 mi Calm Calm - N/A   Mostly Cloudy
10:54 PM 45.0 °F 44.1 °F 97% 30.23 in 4.0 mi Calm Calm - N/A   Scattered Clouds
11:54 PM 48.0 °F 44.1 °F 86% 30.23 in 10.0 mi NW 3.5 mph - N/A   Overcast